Year,Month,Day,Hour,Minute,Value (Times are PST for temperature in C)
2015,03,16,00,00,9.10
2015,03,16,00,01,9.10
2015,03,16,00,02,9.20
2015,03,16,00,03,9.20
2015,03,16,00,04,9.20
2015,03,16,00,05,9.20
2015,03,16,00,06,9.20
2015,03,16,00,07,9.20
2015,03,16,00,08,9.20
2015,03,16,00,09,9.20
2015,03,16,00,10,9.20
2015,03,16,00,11,9.20
2015,03,16,00,12,9.20
2015,03,16,00,13,9.20
2015,03,16,00,14,9.20
2015,03,16,00,15,9.20
2015,03,16,00,16,9.20
2015,03,16,00,17,9.20
2015,03,16,00,18,9.10
2015,03,16,00,19,9.10
2015,03,16,00,20,9.10
2015,03,16,00,21,9.10
2015,03,16,00,22,9.10
2015,03,16,00,23,9.10
2015,03,16,00,24,9.00
2015,03,16,00,25,9.00
2015,03,16,00,26,8.90
2015,03,16,00,27,8.90
2015,03,16,00,28,9.00
2015,03,16,00,29,9.00
2015,03,16,00,30,9.00
2015,03,16,00,31,9.10
2015,03,16,00,32,9.10
2015,03,16,00,33,9.20
2015,03,16,00,34,9.20
2015,03,16,00,35,9.10
2015,03,16,00,36,9.10
2015,03,16,00,37,9.20
2015,03,16,00,38,9.20
2015,03,16,00,39,9.30
2015,03,16,00,40,9.30
2015,03,16,00,41,9.30
2015,03,16,00,42,9.40
2015,03,16,00,43,9.40
2015,03,16,00,44,9.40
2015,03,16,00,45,9.40
2015,03,16,00,46,9.50
2015,03,16,00,47,9.50
2015,03,16,00,48,9.60
2015,03,16,00,49,9.50
2015,03,16,00,50,9.50
2015,03,16,00,51,9.60
2015,03,16,00,52,9.60
2015,03,16,00,53,9.60
2015,03,16,00,54,9.60
2015,03,16,00,55,9.60
2015,03,16,00,56,9.60
2015,03,16,00,57,9.60
2015,03,16,00,58,9.50
2015,03,16,00,59,9.50
2015,03,16,01,00,9.50
2015,03,16,01,01,9.50
2015,03,16,01,02,9.50
2015,03,16,01,03,9.50
2015,03,16,01,04,9.50
2015,03,16,01,05,9.60
2015,03,16,01,06,9.60
2015,03,16,01,07,9.60
2015,03,16,01,08,9.50
2015,03,16,01,09,9.50
2015,03,16,01,10,9.50
2015,03,16,01,11,9.50
2015,03,16,01,12,9.40
2015,03,16,01,13,9.40
2015,03,16,01,14,9.30
2015,03,16,01,15,9.30
2015,03,16,01,16,9.30
2015,03,16,01,17,9.20
2015,03,16,01,18,9.20
2015,03,16,01,19,9.20
2015,03,16,01,20,9.20
2015,03,16,01,21,9.20
2015,03,16,01,22,9.20
2015,03,16,01,23,9.20
2015,03,16,01,24,9.20
2015,03,16,01,25,9.20
2015,03,16,01,26,9.10
2015,03,16,01,27,9.10
2015,03,16,01,28,9.10
2015,03,16,01,29,9.00
2015,03,16,01,30,9.00
2015,03,16,01,31,9.00
2015,03,16,01,32,9.00
2015,03,16,01,33,9.00
2015,03,16,01,34,9.00
2015,03,16,01,35,9.00
2015,03,16,01,36,8.90
2015,03,16,01,37,8.90
2015,03,16,01,38,8.90
2015,03,16,01,39,8.80
2015,03,16,01,40,8.80
2015,03,16,01,41,8.90
2015,03,16,01,42,8.90
2015,03,16,01,43,8.90
2015,03,16,01,44,8.80
2015,03,16,01,45,8.80
2015,03,16,01,46,8.80
2015,03,16,01,47,8.80
2015,03,16,01,48,8.80
2015,03,16,01,49,8.70
2015,03,16,01,50,8.70
2015,03,16,01,51,8.60
2015,03,16,01,52,8.50
2015,03,16,01,53,8.50
2015,03,16,01,54,8.40
2015,03,16,01,55,8.30
2015,03,16,01,56,8.20
2015,03,16,01,57,8.20
2015,03,16,01,58,8.10
2015,03,16,01,59,8.10
2015,03,16,02,00,8.00
2015,03,16,02,01,7.90
2015,03,16,02,02,7.90
2015,03,16,02,03,7.90
2015,03,16,02,04,7.90
2015,03,16,02,05,7.90
2015,03,16,02,06,7.90
2015,03,16,02,07,7.80
2015,03,16,02,08,7.80
2015,03,16,02,09,7.80
2015,03,16,02,10,7.70
2015,03,16,02,11,7.70
2015,03,16,02,12,7.70
2015,03,16,02,13,7.70
2015,03,16,02,14,7.60
2015,03,16,02,15,7.60
2015,03,16,02,16,7.60
2015,03,16,02,17,7.50
2015,03,16,02,18,7.50
2015,03,16,02,19,7.40
2015,03,16,02,20,7.40
2015,03,16,02,21,7.40
2015,03,16,02,22,7.30
2015,03,16,02,23,7.30
2015,03,16,02,24,7.30
2015,03,16,02,25,7.30
2015,03,16,02,26,7.30
2015,03,16,02,27,7.20
2015,03,16,02,28,7.20
2015,03,16,02,29,7.20
2015,03,16,02,30,7.20
2015,03,16,02,31,7.20
2015,03,16,02,32,7.10
2015,03,16,02,33,7.10
2015,03,16,02,34,7.10
2015,03,16,02,35,7.10
2015,03,16,02,36,7.00
2015,03,16,02,37,7.00
2015,03,16,02,38,6.90
2015,03,16,02,39,6.90
2015,03,16,02,40,6.80
2015,03,16,02,41,6.80
2015,03,16,02,42,6.80
2015,03,16,02,43,6.90
2015,03,16,02,44,6.90
2015,03,16,02,45,6.90
2015,03,16,02,46,6.90
2015,03,16,02,47,6.90
2015,03,16,02,48,6.90
2015,03,16,02,49,6.90
2015,03,16,02,50,6.90
2015,03,16,02,51,6.90
2015,03,16,02,52,6.90
2015,03,16,02,53,6.90
2015,03,16,02,54,7.00
2015,03,16,02,55,7.00
2015,03,16,02,56,7.00
2015,03,16,02,57,7.00
2015,03,16,02,58,7.00
2015,03,16,02,59,7.00
2015,03,16,03,00,7.00
2015,03,16,03,01,6.90
2015,03,16,03,02,6.90
2015,03,16,03,06,6.70
2015,03,16,03,07,6.70
2015,03,16,03,08,6.60
2015,03,16,03,09,6.60
2015,03,16,03,10,6.60
2015,03,16,03,11,6.50
2015,03,16,03,12,6.50
2015,03,16,03,13,6.40
2015,03,16,03,14,6.40
2015,03,16,03,15,6.30
2015,03,16,03,16,6.30
2015,03,16,03,17,6.30
2015,03,16,03,18,6.20
2015,03,16,03,19,6.20
2015,03,16,03,20,6.20
2015,03,16,03,21,6.20
2015,03,16,03,22,6.20
2015,03,16,03,23,6.20
2015,03,16,03,24,6.20
2015,03,16,03,25,6.10
2015,03,16,03,26,6.10
2015,03,16,03,27,6.10
2015,03,16,03,28,6.20
2015,03,16,03,29,6.20
2015,03,16,03,30,6.20
2015,03,16,03,31,6.20
2015,03,16,03,32,6.30
2015,03,16,03,33,6.30
2015,03,16,03,34,6.30
2015,03,16,03,35,6.30
2015,03,16,03,36,6.30
2015,03,16,03,37,6.20
2015,03,16,03,38,6.20
2015,03,16,03,39,6.20
2015,03,16,03,40,6.20
2015,03,16,03,41,6.20
2015,03,16,03,42,6.20
2015,03,16,03,43,6.20
2015,03,16,03,44,6.20
2015,03,16,03,45,6.20
2015,03,16,03,46,6.20
2015,03,16,03,47,6.20
2015,03,16,03,48,6.20
2015,03,16,03,49,6.20
2015,03,16,03,50,6.20
2015,03,16,03,51,6.20
2015,03,16,03,52,6.20
2015,03,16,03,53,6.20
2015,03,16,03,54,6.20
2015,03,16,03,55,6.20
2015,03,16,03,56,6.20
2015,03,16,03,57,6.20
2015,03,16,03,58,6.20
2015,03,16,03,59,6.20
2015,03,16,04,00,6.20
2015,03,16,04,01,6.20
2015,03,16,04,02,6.20
2015,03,16,04,03,6.20
2015,03,16,04,04,6.20
2015,03,16,04,05,6.20
2015,03,16,04,06,6.20
2015,03,16,04,07,6.20
2015,03,16,04,08,6.30
2015,03,16,04,09,6.30
2015,03,16,04,10,6.30
2015,03,16,04,11,6.30
2015,03,16,04,12,6.30
2015,03,16,04,13,6.40
2015,03,16,04,14,6.40
2015,03,16,04,15,6.40
2015,03,16,04,16,6.40
2015,03,16,04,17,6.40
2015,03,16,04,18,6.40
2015,03,16,04,19,6.40
2015,03,16,04,20,6.40
2015,03,16,04,21,6.40
2015,03,16,04,22,6.40
2015,03,16,04,23,6.40
2015,03,16,04,24,6.50
2015,03,16,04,25,6.50
2015,03,16,04,26,6.50
2015,03,16,04,27,6.50
2015,03,16,04,28,6.50
2015,03,16,04,29,6.60
2015,03,16,04,30,6.50
2015,03,16,04,31,6.50
2015,03,16,04,32,6.50
2015,03,16,04,33,6.40
2015,03,16,04,34,6.40
2015,03,16,04,35,6.40
2015,03,16,04,36,6.40
2015,03,16,04,37,6.30
2015,03,16,04,38,6.30
2015,03,16,04,39,6.30
2015,03,16,04,40,6.30
2015,03,16,04,41,6.30
2015,03,16,04,42,6.30
2015,03,16,04,43,6.30
2015,03,16,04,44,6.30
2015,03,16,04,45,6.30
2015,03,16,04,46,6.30
2015,03,16,04,47,6.30
2015,03,16,04,48,6.30
2015,03,16,04,49,6.30
2015,03,16,04,50,6.30
2015,03,16,04,51,6.30
2015,03,16,04,52,6.30
2015,03,16,04,53,6.30
2015,03,16,04,54,6.30
2015,03,16,04,55,6.30
2015,03,16,04,56,6.30
2015,03,16,04,57,6.30
2015,03,16,04,58,6.30
2015,03,16,04,59,6.30
2015,03,16,05,00,6.20
2015,03,16,05,01,6.20
2015,03,16,05,02,6.20
2015,03,16,05,03,6.20
2015,03,16,05,04,6.20
2015,03,16,05,05,6.20
2015,03,16,05,06,6.20
2015,03,16,05,07,6.20
2015,03,16,05,08,6.20
2015,03,16,05,09,6.30
2015,03,16,05,10,6.30
2015,03,16,05,11,6.30
2015,03,16,05,12,6.40
2015,03,16,05,13,6.40
2015,03,16,05,14,6.40
2015,03,16,05,15,6.40
2015,03,16,05,16,6.40
2015,03,16,05,17,6.40
2015,03,16,05,18,6.30
2015,03,16,05,19,6.30
2015,03,16,05,20,6.30
2015,03,16,05,21,6.30
2015,03,16,05,22,6.30
2015,03,16,05,23,6.30
2015,03,16,05,24,6.20
2015,03,16,05,25,6.20
2015,03,16,05,26,6.20
2015,03,16,05,27,6.20
2015,03,16,05,28,6.10
2015,03,16,05,29,6.10
2015,03,16,05,30,6.10
2015,03,16,05,31,6.10
2015,03,16,05,32,6.00
2015,03,16,05,33,6.00
2015,03,16,05,34,6.00
2015,03,16,05,35,6.00
2015,03,16,05,36,6.00
2015,03,16,05,37,5.90
2015,03,16,05,38,5.90
2015,03,16,05,39,5.90
2015,03,16,05,40,5.90
2015,03,16,05,41,5.90
2015,03,16,05,42,5.90
2015,03,16,05,43,5.90
2015,03,16,05,44,5.90
2015,03,16,05,45,5.80
2015,03,16,05,46,5.80
2015,03,16,05,47,5.80
2015,03,16,05,48,5.80
2015,03,16,05,49,5.80
2015,03,16,05,50,5.80
2015,03,16,05,51,5.70
2015,03,16,05,52,5.70
2015,03,16,05,53,5.70
2015,03,16,05,54,5.70
2015,03,16,05,55,5.60
2015,03,16,05,56,5.60
2015,03,16,05,57,5.60
2015,03,16,05,58,5.50
2015,03,16,05,59,5.50
2015,03,16,06,00,5.40
2015,03,16,06,01,5.40
2015,03,16,06,02,5.40
2015,03,16,06,03,5.40
2015,03,16,06,04,5.30
2015,03,16,06,05,5.30
2015,03,16,06,06,5.30
2015,03,16,06,07,5.30
2015,03,16,06,08,5.30
2015,03,16,06,09,5.30
2015,03,16,06,10,5.20
2015,03,16,06,11,5.20
2015,03,16,06,12,5.20
2015,03,16,06,13,5.20
2015,03,16,06,14,5.20
2015,03,16,06,15,5.10
2015,03,16,06,16,5.10
2015,03,16,06,17,5.10
2015,03,16,06,18,5.00
2015,03,16,06,19,5.00
2015,03,16,06,20,5.00
2015,03,16,06,21,5.00
2015,03,16,06,22,5.00
2015,03,16,06,23,5.00
2015,03,16,06,24,4.90
2015,03,16,06,25,4.90
2015,03,16,06,26,4.90
2015,03,16,06,27,4.90
2015,03,16,06,28,4.80
2015,03,16,06,29,4.80
2015,03,16,06,30,4.80
2015,03,16,06,31,4.70
2015,03,16,06,32,4.70
2015,03,16,06,33,4.70
2015,03,16,06,34,4.70
2015,03,16,06,35,4.70
2015,03,16,06,36,4.70
2015,03,16,06,37,4.70
2015,03,16,06,38,4.70
2015,03,16,06,39,4.70
2015,03,16,06,40,4.70
2015,03,16,06,41,4.70
2015,03,16,06,42,4.70
2015,03,16,06,43,4.70
2015,03,16,06,44,4.70
2015,03,16,06,45,4.70
2015,03,16,06,46,4.70
2015,03,16,06,47,4.80
2015,03,16,06,48,4.80
2015,03,16,06,49,4.80
2015,03,16,06,50,4.80
2015,03,16,06,51,4.80
2015,03,16,06,52,4.80
2015,03,16,06,53,4.90
2015,03,16,06,54,4.90
2015,03,16,06,55,5.00
2015,03,16,06,56,5.00
2015,03,16,06,57,5.10
2015,03,16,06,58,5.10
2015,03,16,06,59,5.10
2015,03,16,07,00,5.20
2015,03,16,07,01,5.20
2015,03,16,07,02,5.20
2015,03,16,07,03,5.20
2015,03,16,07,04,5.30
2015,03,16,07,05,5.30
2015,03,16,07,06,5.40
2015,03,16,07,07,5.40
2015,03,16,07,08,5.50
2015,03,16,07,09,5.50
2015,03,16,07,10,5.60
2015,03,16,07,11,5.60
2015,03,16,07,12,5.60
2015,03,16,07,13,5.60
2015,03,16,07,14,5.60
2015,03,16,07,15,5.60
2015,03,16,07,16,5.60
2015,03,16,07,17,5.60
2015,03,16,07,18,5.50
2015,03,16,07,19,5.50
2015,03,16,07,20,5.50
2015,03,16,07,21,5.50
2015,03,16,07,22,5.40
2015,03,16,07,23,5.40
2015,03,16,07,24,5.40
2015,03,16,07,25,5.30
2015,03,16,07,26,5.30
2015,03,16,07,27,5.30
2015,03,16,07,28,5.30
2015,03,16,07,29,5.30
2015,03,16,07,30,5.30
2015,03,16,07,31,5.30
2015,03,16,07,32,5.30
2015,03,16,07,33,5.40
2015,03,16,07,34,5.40
2015,03,16,07,35,5.40
2015,03,16,07,36,5.40
2015,03,16,07,37,5.50
2015,03,16,07,38,5.60
2015,03,16,07,39,5.60
2015,03,16,07,40,5.70
2015,03,16,07,41,5.70
2015,03,16,07,42,5.80
2015,03,16,07,43,5.80
2015,03,16,07,44,5.80
2015,03,16,07,45,5.80
2015,03,16,07,46,5.90
2015,03,16,07,47,5.90
2015,03,16,07,48,5.90
2015,03,16,07,49,5.90
2015,03,16,07,50,5.90
2015,03,16,07,51,5.90
2015,03,16,07,52,6.00
2015,03,16,07,53,6.00
2015,03,16,07,54,6.00
2015,03,16,07,55,6.00
2015,03,16,07,56,6.10
2015,03,16,07,57,6.10
2015,03,16,07,58,6.10
2015,03,16,07,59,6.10
2015,03,16,08,00,6.10
2015,03,16,08,01,6.10
2015,03,16,08,02,6.10
2015,03,16,08,03,6.10
2015,03,16,08,04,6.20
2015,03,16,08,05,6.20
2015,03,16,08,06,6.20
2015,03,16,08,07,6.20
2015,03,16,08,08,6.20
2015,03,16,08,09,6.30
2015,03,16,08,10,6.30
2015,03,16,08,11,6.30
2015,03,16,08,12,6.30
2015,03,16,08,13,6.30
2015,03,16,08,14,6.40
2015,03,16,08,15,6.40
2015,03,16,08,16,6.40
2015,03,16,08,17,6.50
2015,03,16,08,18,6.50
2015,03,16,08,19,6.60
2015,03,16,08,20,6.70
2015,03,16,08,21,6.70
2015,03,16,08,22,6.80
2015,03,16,08,23,6.80
2015,03,16,08,24,6.80
2015,03,16,08,25,6.90
2015,03,16,08,26,6.90
2015,03,16,08,27,6.90
2015,03,16,08,28,7.00
2015,03,16,08,29,7.00
2015,03,16,08,30,7.10
2015,03,16,08,31,7.10
2015,03,16,08,32,7.20
2015,03,16,08,33,7.20
2015,03,16,08,34,7.30
2015,03,16,08,35,7.30
2015,03,16,08,36,7.40
2015,03,16,08,37,7.50
2015,03,16,08,38,7.50
2015,03,16,08,39,7.60
2015,03,16,08,40,7.60
2015,03,16,08,41,7.60
2015,03,16,08,42,7.70
2015,03,16,08,43,7.70
2015,03,16,08,44,7.70
2015,03,16,08,45,7.60
2015,03,16,08,46,7.60
2015,03,16,08,47,7.60
2015,03,16,08,48,7.60
2015,03,16,08,49,7.60
2015,03,16,08,50,7.60
2015,03,16,08,51,7.60
2015,03,16,08,52,7.60
2015,03,16,08,53,7.60
2015,03,16,08,54,7.50
2015,03,16,08,55,7.60
2015,03,16,08,56,7.60
2015,03,16,08,57,7.60
2015,03,16,08,58,7.60
2015,03,16,08,59,7.60
2015,03,16,09,00,7.60
2015,03,16,09,01,7.60
2015,03,16,09,02,7.60
2015,03,16,09,03,7.60
2015,03,16,09,04,7.60
2015,03,16,09,05,7.60
2015,03,16,09,06,7.70
2015,03,16,09,07,7.70
2015,03,16,09,08,7.70
2015,03,16,09,09,7.70
2015,03,16,09,10,7.70
2015,03,16,09,11,7.70
2015,03,16,09,12,7.70
2015,03,16,09,13,7.70
2015,03,16,09,14,7.70
2015,03,16,09,15,7.70
2015,03,16,09,16,7.70
2015,03,16,09,17,7.70
2015,03,16,09,18,7.70
2015,03,16,09,19,7.70
2015,03,16,09,20,7.70
2015,03,16,09,21,7.70
2015,03,16,09,22,7.70
2015,03,16,09,23,7.80
2015,03,16,09,24,7.80
2015,03,16,09,25,7.80
2015,03,16,09,26,7.80
2015,03,16,09,27,7.90
2015,03,16,09,28,7.90
2015,03,16,09,29,7.90
2015,03,16,09,30,7.90
2015,03,16,09,31,8.00
2015,03,16,09,32,8.00
2015,03,16,09,33,8.10
2015,03,16,09,34,8.10
2015,03,16,09,35,8.20
2015,03,16,09,36,8.20
2015,03,16,09,37,8.20
2015,03,16,09,38,8.30
2015,03,16,09,39,8.30
2015,03,16,09,40,8.40
2015,03,16,09,41,8.40
2015,03,16,09,42,8.50
2015,03,16,09,43,8.60
2015,03,16,09,44,8.60
2015,03,16,09,45,8.60
2015,03,16,09,46,8.60
2015,03,16,09,47,8.60
2015,03,16,09,48,8.50
2015,03,16,09,49,8.50
2015,03,16,09,50,8.50
2015,03,16,09,51,8.50
2015,03,16,09,52,8.50
2015,03,16,09,53,8.50
2015,03,16,09,54,8.60
2015,03,16,09,55,8.60
2015,03,16,09,56,8.60
2015,03,16,09,57,8.50
2015,03,16,09,58,8.50
2015,03,16,09,59,8.50
2015,03,16,10,00,8.50
2015,03,16,10,01,8.50
2015,03,16,10,02,8.50
2015,03,16,10,03,8.50
2015,03,16,10,04,8.50
2015,03,16,10,05,8.50
2015,03,16,10,06,8.40
2015,03,16,10,07,8.40
2015,03,16,10,08,8.40
2015,03,16,10,09,8.40
2015,03,16,10,10,8.40
2015,03,16,10,11,8.50
2015,03,16,10,12,8.50
2015,03,16,10,13,8.50
2015,03,16,10,14,8.50
2015,03,16,10,15,8.50
2015,03,16,10,16,8.50
2015,03,16,10,17,8.50
2015,03,16,10,18,8.60
2015,03,16,10,19,8.60
2015,03,16,10,20,8.60
2015,03,16,10,21,8.60
2015,03,16,10,22,8.70
2015,03,16,10,23,8.70
2015,03,16,10,24,8.70
2015,03,16,10,25,8.70
2015,03,16,10,26,8.80
2015,03,16,10,27,8.80
2015,03,16,10,28,8.80
2015,03,16,10,29,8.90
2015,03,16,10,30,9.00
2015,03,16,10,31,9.00
2015,03,16,10,32,9.10
2015,03,16,10,33,9.10
2015,03,16,10,34,9.20
2015,03,16,10,35,9.30
2015,03,16,10,36,9.30
2015,03,16,10,37,9.40
2015,03,16,10,38,9.40
2015,03,16,10,39,9.40
2015,03,16,10,40,9.40
2015,03,16,10,41,9.40
2015,03,16,10,42,9.30
2015,03,16,10,43,9.30
2015,03,16,10,44,9.30
2015,03,16,10,45,9.30
2015,03,16,10,46,9.30
2015,03,16,10,47,9.30
2015,03,16,10,48,9.30
2015,03,16,10,49,9.30
2015,03,16,10,50,9.30
2015,03,16,10,51,9.30
2015,03,16,10,52,9.30
2015,03,16,10,53,9.30
2015,03,16,10,54,9.30
2015,03,16,10,55,9.40
2015,03,16,10,56,9.40
2015,03,16,10,57,9.40
2015,03,16,10,58,9.50
2015,03,16,10,59,9.50
2015,03,16,11,00,9.60
2015,03,16,11,01,9.50
2015,03,16,11,02,9.50
2015,03,16,11,03,9.40
2015,03,16,11,04,9.40
2015,03,16,11,05,9.40
2015,03,16,11,06,9.40
2015,03,16,11,07,9.50
2015,03,16,11,08,9.50
2015,03,16,11,09,9.60
2015,03,16,11,10,9.60
2015,03,16,11,11,9.60
2015,03,16,11,12,9.60
2015,03,16,11,13,9.60
2015,03,16,11,14,9.60
2015,03,16,11,15,9.70
2015,03,16,11,16,9.70
2015,03,16,11,17,9.70
2015,03,16,11,18,9.70
2015,03,16,11,19,9.70
2015,03,16,11,20,9.70
2015,03,16,11,21,9.70
2015,03,16,11,22,9.70
2015,03,16,11,23,9.70
2015,03,16,11,24,9.70
2015,03,16,11,25,9.70
2015,03,16,11,26,9.70
2015,03,16,11,27,9.70
2015,03,16,11,28,9.70
2015,03,16,11,29,9.70
2015,03,16,11,30,9.70
2015,03,16,11,31,9.70
2015,03,16,11,32,9.70
2015,03,16,11,33,9.60
2015,03,16,11,34,9.60
2015,03,16,11,35,9.60
2015,03,16,11,36,9.60
2015,03,16,11,37,9.60
2015,03,16,11,38,9.60
2015,03,16,11,39,9.60
2015,03,16,11,40,9.60
2015,03,16,11,41,9.60
2015,03,16,11,42,9.60
2015,03,16,11,43,9.60
2015,03,16,11,44,9.60
2015,03,16,11,45,9.60
2015,03,16,11,46,9.50
2015,03,16,11,47,9.50
2015,03,16,11,48,9.40
2015,03,16,11,49,9.40
2015,03,16,11,50,9.30
2015,03,16,11,51,9.30
2015,03,16,11,52,9.20
2015,03,16,11,53,9.20
2015,03,16,11,54,9.30
2015,03,16,11,55,9.30
2015,03,16,11,56,9.30
2015,03,16,11,57,9.40
2015,03,16,11,58,9.40
2015,03,16,11,59,9.50
2015,03,16,12,00,9.60
2015,03,16,12,01,9.60
2015,03,16,12,02,9.70
2015,03,16,12,03,9.70
2015,03,16,12,04,9.70
2015,03,16,12,05,9.70
2015,03,16,12,06,9.70
2015,03,16,12,07,9.80
2015,03,16,12,08,9.80
2015,03,16,12,09,9.80
2015,03,16,12,10,9.80
2015,03,16,12,11,9.80
2015,03,16,12,12,9.80
2015,03,16,12,13,9.90
2015,03,16,12,14,9.90
2015,03,16,12,15,9.90
2015,03,16,12,16,9.90
2015,03,16,12,17,9.90
2015,03,16,12,18,9.90
2015,03,16,12,19,9.90
2015,03,16,12,20,9.90
2015,03,16,12,21,9.90
2015,03,16,12,22,9.90
2015,03,16,12,23,9.90
2015,03,16,12,24,9.80
2015,03,16,12,25,9.80
2015,03,16,12,26,9.80
2015,03,16,12,27,9.80
2015,03,16,12,28,9.90
2015,03,16,12,29,9.90
2015,03,16,12,30,9.90
2015,03,16,12,31,10.00
2015,03,16,12,32,10.00
2015,03,16,12,33,10.10
2015,03,16,12,34,10.10
2015,03,16,12,35,10.10
2015,03,16,12,36,10.20
2015,03,16,12,37,10.20
2015,03,16,12,38,10.20
2015,03,16,12,39,10.30
2015,03,16,12,40,10.30
2015,03,16,12,41,10.30
2015,03,16,12,42,10.30
2015,03,16,12,43,10.20
2015,03,16,12,44,10.20
2015,03,16,12,45,10.20
2015,03,16,12,46,10.20
2015,03,16,12,47,10.20
2015,03,16,12,48,10.20
2015,03,16,12,49,10.30
2015,03,16,12,50,10.40
2015,03,16,12,51,10.50
2015,03,16,12,52,10.50
2015,03,16,12,53,10.50
2015,03,16,12,54,10.60
2015,03,16,12,55,10.60
2015,03,16,12,56,10.60
2015,03,16,12,57,10.60
2015,03,16,12,58,10.60
2015,03,16,12,59,10.50
2015,03,16,13,00,10.50
2015,03,16,13,01,10.50
2015,03,16,13,02,10.50
2015,03,16,13,03,10.50
2015,03,16,13,04,10.40
2015,03,16,13,05,10.40
2015,03,16,13,06,10.40
2015,03,16,13,07,10.40
2015,03,16,13,08,10.40
2015,03,16,13,09,10.40
2015,03,16,13,10,10.40
2015,03,16,13,11,10.50
2015,03,16,13,12,10.50
2015,03,16,13,13,10.50
2015,03,16,13,14,10.40
2015,03,16,13,15,10.40
2015,03,16,13,16,10.40
2015,03,16,13,17,10.40
2015,03,16,13,18,10.40
2015,03,16,13,19,10.50
2015,03,16,13,20,10.50
2015,03,16,13,21,10.50
2015,03,16,13,22,10.60
2015,03,16,13,23,10.60
2015,03,16,13,24,10.60
2015,03,16,13,25,10.60
2015,03,16,13,26,10.60
2015,03,16,13,27,10.60
2015,03,16,13,28,10.60
2015,03,16,13,29,10.50
2015,03,16,13,30,10.50
2015,03,16,13,31,10.50
2015,03,16,13,32,10.40
2015,03,16,13,33,10.40
2015,03,16,13,34,10.40
2015,03,16,13,35,10.40
2015,03,16,13,36,10.40
2015,03,16,13,37,10.40
2015,03,16,13,38,10.50
2015,03,16,13,39,10.50
2015,03,16,13,40,10.50
2015,03,16,13,41,10.60
2015,03,16,13,42,10.60
2015,03,16,13,43,10.50
2015,03,16,13,44,10.40
2015,03,16,13,45,10.30
2015,03,16,13,46,10.10
2015,03,16,13,47,9.90
2015,03,16,13,48,9.80
2015,03,16,13,49,9.70
2015,03,16,13,50,9.70
2015,03,16,13,51,9.70
2015,03,16,13,52,9.70
2015,03,16,13,53,9.80
2015,03,16,13,54,9.80
2015,03,16,13,55,9.80
2015,03,16,13,56,9.90
2015,03,16,13,57,9.90
2015,03,16,13,58,9.90
2015,03,16,13,59,10.00
2015,03,16,14,00,10.10
2015,03,16,14,01,10.10
2015,03,16,14,02,10.20
2015,03,16,14,03,10.10
2015,03,16,14,04,10.10
2015,03,16,14,05,10.10
2015,03,16,14,06,10.10
2015,03,16,14,07,10.10
2015,03,16,14,08,10.10
2015,03,16,14,09,10.20
2015,03,16,14,10,10.20
2015,03,16,14,11,10.20
2015,03,16,14,12,10.10
2015,03,16,14,13,10.10
2015,03,16,14,14,10.00
2015,03,16,14,15,10.00
2015,03,16,14,16,9.90
2015,03,16,14,17,9.80
2015,03,16,14,18,9.80
2015,03,16,14,19,9.80
2015,03,16,14,20,9.70
2015,03,16,14,21,9.70
2015,03,16,14,22,9.70
2015,03,16,14,23,9.60
2015,03,16,14,24,9.60
2015,03,16,14,25,9.60
2015,03,16,14,26,9.60
2015,03,16,14,27,9.50
2015,03,16,14,28,9.50
2015,03,16,14,29,9.50
2015,03,16,14,30,9.50
2015,03,16,14,31,9.60
2015,03,16,14,32,9.60
2015,03,16,14,33,9.60
2015,03,16,14,34,9.60
2015,03,16,14,35,9.60
2015,03,16,14,36,9.70
2015,03,16,14,37,9.70
2015,03,16,14,38,9.80
2015,03,16,14,39,9.80
2015,03,16,14,40,9.80
2015,03,16,14,41,9.90
2015,03,16,14,42,10.00
2015,03,16,14,43,10.00
2015,03,16,14,44,10.10
2015,03,16,14,45,10.20
2015,03,16,14,46,10.30
2015,03,16,14,47,10.40
2015,03,16,14,48,10.50
2015,03,16,14,49,10.60
2015,03,16,14,50,10.70
2015,03,16,14,51,10.80
2015,03,16,14,52,10.90
2015,03,16,14,53,11.00
2015,03,16,14,54,11.10
2015,03,16,14,55,11.10
2015,03,16,14,56,11.20
2015,03,16,14,57,11.30
2015,03,16,14,58,11.40
2015,03,16,14,59,11.40
2015,03,16,15,00,11.50
2015,03,16,15,01,11.60
2015,03,16,15,02,11.60
2015,03,16,15,03,11.70
2015,03,16,15,04,11.70
2015,03,16,15,05,11.70
2015,03,16,15,06,11.80
2015,03,16,15,07,11.80
2015,03,16,15,08,11.80
2015,03,16,15,09,11.80
2015,03,16,15,10,11.90
2015,03,16,15,11,12.00
2015,03,16,15,12,12.10
2015,03,16,15,13,12.10
2015,03,16,15,14,12.20
2015,03,16,15,15,12.30
2015,03,16,15,16,12.20
2015,03,16,15,17,12.10
2015,03,16,15,18,12.00
2015,03,16,15,19,11.90
2015,03,16,15,20,11.80
2015,03,16,15,21,11.70
2015,03,16,15,22,11.60
2015,03,16,15,23,11.50
2015,03,16,15,24,11.30
2015,03,16,15,25,11.00
2015,03,16,15,26,10.90
2015,03,16,15,27,10.70
2015,03,16,15,28,10.60
2015,03,16,15,29,10.50
2015,03,16,15,30,10.40
2015,03,16,15,31,10.40
2015,03,16,15,32,10.40
2015,03,16,15,33,10.40
2015,03,16,15,34,10.40
2015,03,16,15,35,10.40
2015,03,16,15,36,10.40
2015,03,16,15,37,10.40
2015,03,16,15,38,10.40
2015,03,16,15,39,10.40
2015,03,16,15,40,10.40
2015,03,16,15,41,10.40
2015,03,16,15,42,10.40
2015,03,16,15,43,10.30
2015,03,16,15,44,10.10
2015,03,16,15,45,10.00
2015,03,16,15,46,9.90
2015,03,16,15,47,9.90
2015,03,16,15,48,9.90
2015,03,16,15,49,9.90
2015,03,16,15,50,9.80
2015,03,16,15,51,9.80
2015,03,16,15,52,9.80
2015,03,16,15,53,9.70
2015,03,16,15,54,9.70
2015,03,16,15,55,9.70
2015,03,16,15,56,9.70
2015,03,16,15,57,9.70
2015,03,16,15,58,9.60
2015,03,16,15,59,9.60
2015,03,16,16,00,9.60
2015,03,16,16,01,9.60
2015,03,16,16,02,9.60
2015,03,16,16,03,9.70
2015,03,16,16,04,9.70
2015,03,16,16,05,9.60
2015,03,16,16,06,9.70
2015,03,16,16,07,9.70
2015,03,16,16,08,9.70
2015,03,16,16,09,9.70
2015,03,16,16,10,9.70
2015,03,16,16,11,9.70
2015,03,16,16,12,9.70
2015,03,16,16,13,9.70
2015,03,16,16,14,9.70
2015,03,16,16,15,9.70
2015,03,16,16,16,9.80
2015,03,16,16,17,9.80
2015,03,16,16,18,9.90
2015,03,16,16,19,9.90
2015,03,16,16,20,9.90
2015,03,16,16,21,10.00
2015,03,16,16,22,10.10
2015,03,16,16,23,10.20
2015,03,16,16,24,10.20
2015,03,16,16,25,10.20
2015,03,16,16,26,10.30
2015,03,16,16,27,10.30
2015,03,16,16,28,10.30
2015,03,16,16,29,10.30
2015,03,16,16,30,10.30
2015,03,16,16,31,10.20
2015,03,16,16,32,10.20
2015,03,16,16,33,10.20
2015,03,16,16,34,10.20
2015,03,16,16,35,10.10
2015,03,16,16,36,10.10
2015,03,16,16,37,10.10
2015,03,16,16,38,10.10
2015,03,16,16,39,10.10
2015,03,16,16,40,10.10
2015,03,16,16,41,10.10
2015,03,16,16,42,10.10
2015,03,16,16,43,10.10
2015,03,16,16,44,10.10
2015,03,16,16,45,10.10
2015,03,16,16,46,10.20
2015,03,16,16,47,10.20
2015,03,16,16,48,10.30
2015,03,16,16,49,10.30
2015,03,16,16,50,10.40
2015,03,16,16,51,10.50
2015,03,16,16,52,10.50
2015,03,16,16,53,10.60
2015,03,16,16,54,10.60
2015,03,16,16,55,10.60
2015,03,16,16,56,10.60
2015,03,16,16,57,10.60
2015,03,16,16,58,10.60
2015,03,16,16,59,10.70
2015,03,16,17,00,10.70
2015,03,16,17,01,10.70
2015,03,16,17,02,10.70
2015,03,16,17,03,10.70
2015,03,16,17,04,10.70
2015,03,16,17,05,10.60
2015,03,16,17,06,10.60
2015,03,16,17,07,10.60
2015,03,16,17,08,10.60
2015,03,16,17,09,10.60
2015,03,16,17,10,10.60
2015,03,16,17,11,10.60
2015,03,16,17,12,10.70
2015,03,16,17,13,10.70
2015,03,16,17,14,10.70
2015,03,16,17,15,10.80
2015,03,16,17,16,10.80
2015,03,16,17,17,10.90
2015,03,16,17,18,10.90
2015,03,16,17,19,10.90
2015,03,16,17,20,10.90
2015,03,16,17,21,10.90
2015,03,16,17,22,10.90
2015,03,16,17,23,11.00
2015,03,16,17,24,11.00
2015,03,16,17,25,11.10
2015,03,16,17,26,11.10
2015,03,16,17,27,11.10
2015,03,16,17,28,11.20
2015,03,16,17,29,11.10
2015,03,16,17,30,11.10
2015,03,16,17,31,11.10
2015,03,16,17,32,11.00
2015,03,16,17,33,11.00
2015,03,16,17,34,11.00
2015,03,16,17,35,11.00
2015,03,16,17,36,11.00
2015,03,16,17,37,10.90
2015,03,16,17,38,10.90
2015,03,16,17,39,10.80
2015,03,16,17,40,10.80
2015,03,16,17,41,10.70
2015,03,16,17,42,10.70
2015,03,16,17,43,10.60
2015,03,16,17,44,10.60
2015,03,16,17,45,10.50
2015,03,16,17,46,10.40
2015,03,16,17,47,10.30
2015,03,16,17,48,10.30
2015,03,16,17,49,10.20
2015,03,16,17,50,10.20
2015,03,16,17,51,10.20
2015,03,16,17,52,10.20
2015,03,16,17,53,10.10
2015,03,16,17,54,10.10
2015,03,16,17,55,10.10
2015,03,16,17,56,10.10
2015,03,16,17,57,10.10
2015,03,16,17,58,10.10